SCP
0 0 0 0 0 0 0 0 0 0 0 0 0 0 0 0 0 0 0 0 0 0 0 0 0 0 0 0 0 0 0 0 0 0 0 0 0 0 0 0 0 0 0 0
0 0 0 0 0 0 0 0 0 0 0 0 0 0 0 0 0 0 0 0 0 0 0 0 0 0 0 0 0 0 0 0 0 0 0 0 0 0 0 0 0 0 0 0
0 0 0 0 0 0 0 0 0 0 0 0 0 0 0 0 0 0 0 0 0 0 0 0 0 0 0 0 0 0 0 0 0 0 0 0 0 0 0 0 0 0 0 0
0 0 0 0 0 0 0 0 0 0 0 0 0 0 0 0 0 0 0 0 0 0 0 0 0 0 0 0 0 0 0 0 0 0 0 0 0 0 0 0 0 0 0 0
0 0 0 0 0 0 0 0 0 0 0 0 0 0 0 0 0 0 0 0 0 0 0 0 0 0 0 0 0 0 0 0 0 0 0 0 0 0 0 0 0 0 0 0
0 0 0 0 0 0 0 0 0 0 0 0 0 0 0 0 0 0 0 0 0 0 0 0 0 0 0 0 0 0 0 0 0 0 0 0 0 0 0 0 0 0 0 0
0 0 0 0 0 0 0 0 0 0 0 0 0 0 0 0 0 0 0 0 0 0 0 0 0 0 0 0 0 0 0 0 0 0 0 0 0 0 0 0 0 0 0 0
0 0 0 0 0 0 0 0 0 0 0 0 0 0 0 0 0 0 0 0 0 0 0 0 0 0 0 0 0 0 0 0 0 0 0 0 0 0 0 0 0 0 0 0
0 0 0 0 0 0 0 0 0 0 0 0 0 0 0 0 0 0 0 0 0 0 0 0 0 0 0 -0 -0 -0 -0 -0 -0 0 0 0 0 0 0 0 0 0 0 0
0 0 0 0 0 0 0 0 0 0 0 0 0 0 0 0 0 0 0 0 0 0 0 0 0 0 -0 -0 -0 -0 -0 -0 -0 -0 0 0 0 0 0 0 0 0 0 0
0 0 0 0 0 0 0 0 0 0 0 -0 -0 0 0 0 0 0 0 0 -0 -0 -0 -0 -0 -0 -0 -0 -0 -0 0 0 0 0 0 0 0 0 0 0 0 0 0 0
0 0 0 0 0 0 0 0 0 0 0 0 0 0 0 0 0 0 0 -0 -0 -0 -0 -0 -0 -0 -0 -0 0 0 0 0 0 0 0 0 0 0 0 0 0 0 0 0
0 0 0 0 0 0 0 0 0 0 0 0 0 0 0 0 0 0 0 0 -0 -0 0 0 0 0 0 0 0 0 0 0 0 0 0 0 0 0 0 0 0 0 0 0
0 0 0 0 0 0 0 0 0 0 0 0 0 0 0 0 0 0 0 0 0 0 0 0 0 0 0 0 0 0 0 0 0 0 0 0 0 0 0 0 0 0 0 0
0 0 0 0 0 0 0 0 0 0 0 0 0 0 0 0 0 0 0 0 0 0 0 0 0 0 0 0 0 0 0 0 0 0 0 0 0 0 0 0 0 0 0 0
0 0 0 0 0 0 0 0 0 0 0 0 0 -0 0 -0 0 0 0 0 0 0 0 0 0 0 0 0 0 0 0 0 0 -0 0 0 0 0 0 0 0 0 0 0
0 0 0 0 0 0 -0 -0 -0 0 0 0 0 0 0 0 0 0 0 0 0 0 0 0 0 0 0 0 0 0 0 0 0 0 0 0 0 0 0 0 0 0 0 0
0 0 0 0 0 0 0 0 -0 -0 -0 0 0 -0 0 0 0 0 0 0 0 0 0 0 0 0 0 0 0 0 0 0 0 0 0 0 0 0 0 0 0 0 0 0
0 0 0 0 0 0 0 0 0 0 -0 0 0 0 0 0 0 0 0 0 0 0 0 0 0 0 0 0 0 0 0 0 0 0 0 0 0 0 0 0 0 0 0 0
0 0 0 0 0 0 0 0 0 0 0 0 0 0 0 0 0 0 0 0 0 0 0 0 0 0 0 0 0 0 0 0 0 0 0 0 0 0 0 0 0 0 0 0
0 0 0 0 0 0 0 0 0 0 0 0 0 0 0 0 0 0 0 0 0 0 0 0 0 0 0 0 0 0 0 0 0 0 0 0 0 0 0 0 0 0 0 0
0 0 0 0 0 0 0 0 0 0 0 0 0 0 0 0 0 0 0 0 0 0 0 0 0 0 0 0 0 0 0 0 0 0 0 0 0 0 0 0 0 0 0 0
0 0 0 0 0 0 0 0 0 0 0 0 0 0 0 0 0 0 0 0 0 0 0 0 0 0 0 0 0 0 0 0 0 0 0 0 0 0 0 0 0 0 0 0
0 0 0 0 0 0 0 0 0 0 0 0 0 0 0 0 0 0 0 0 0 0 0 0 0 0 0 0 0 0 0 0 0 0 0 0 0 0 0 0 0 0 0 0
0 0 0 0 0 0 0 0 0 0 0 0 0 0 0 0 0 0 0 0 0 0 0 0 0 0 0 0 0 0 0 0 0 0 0 0 0 0 0 0 0 0 0 0
0 0 0 0 0 0 0 0 0 0 0 0 0 0 0 0 0 0 0 0 0 0 0 0 0 0 0 0 0 0 0 0 0 0 0 0 0 0 0 0 0 0 0 0
Wind_Speed_500mb
9 8 13 16 6 9 18 14 12 5 7 5 3 14 23 18 24 31 29 28 32 39 34 38 52 55 53 55 55 55 56 52 56 57 53 52 51 48 44 39 37 36 32 28
12 9 3 11 17 24 13 20 8 6 7 6 10 25 20 11 16 20 29 31 31 32 33 38 41 51 58 61 62 60 63 62 60 57 55 55 51 53 47 42 39 36 34 33
11 2 3 17 20 28 12 11 9 7 7 5 19 4 10 7 7 12 11 8 14 21 26 31 40 46 51 57 62 62 60 61 59 56 55 55 55 57 52 48 43 39 37 39
15 8 8 20 16 7 10 7 14 11 8 2 12 3 8 11 19 31 33 32 26 25 22 19 21 31 43 47 55 57 58 60 59 55 55 56 56 54 52 47 42 41 42 45
6 6 12 16 7 3 9 8 11 9 9 6 9 2 7 3 14 25 34 33 31 34 33 25 17 14 14 25 41 45 50 56 57 53 53 54 54 52 51 49 49 49 46 48
8 6 7 6 7 9 21 12 8 6 4 4 7 7 7 7 12 22 31 37 50 55 48 35 27 28 29 26 19 24 37 43 47 50 51 52 52 50 53 48 51 51 51 52
11 6 7 5 10 4 2 4 2 3 3 4 4 5 9 12 14 14 31 32 49 61 67 53 48 46 49 53 44 34 25 26 36 44 48 50 50 52 54 51 51 53 56 57
7 5 6 8 5 3 5 3 2 4 4 4 3 4 11 13 14 15 22 31 42 58 62 57 52 49 48 41 46 44 36 27 26 34 42 47 50 53 56 55 56 56 59 58
10 3 6 9 5 8 2 5 4 9 5 1 3 3 11 15 8 16 19 30 39 47 54 58 59 56 50 40 34 32 31 30 26 29 36 45 49 53 57 58 60 61 62 60
4 9 4 4 2 15 5 8 4 3 5 3 0 9 14 17 19 6 27 29 26 39 48 54 54 51 42 35 32 34 33 34 37 34 33 37 45 52 57 61 65 65 65 63
4 3 3 2 8 2 3 1 6 3 3 2 0 3 9 24 16 8 11 11 22 38 45 46 41 31 35 39 44 43 38 36 40 44 43 45 46 49 55 62 64 65 63 65
1 6 5 4 2 4 2 5 4 5 7 4 3 13 11 11 17 4 12 21 42 40 42 45 44 48 48 45 40 38 38 40 44 48 50 49 51 58 63 68 69 68 67 66
12 1 8 4 2 1 4 4 7 8 4 13 6 7 7 17 16 11 28 46 48 44 42 42 46 47 42 44 44 42 40 42 44 45 48 49 51 55 62 67 71 72 72 72
6 4 6 10 8 8 11 10 6 5 6 7 23 30 20 24 25 27 42 39 34 35 36 40 31 34 44 54 62 60 54 52 55 58 60 57 53 54 58 63 69 72 75 77
2 5 1 5 8 5 9 14 15 19 21 17 28 33 42 27 31 45 33 29 35 35 36 24 30 43 56 69 74 74 74 70 67 65 65 67 69 69 66 63 62 68 76 80
2 7 4 4 7 2 8 24 27 32 35 35 41 52 44 42 26 15 19 27 29 31 18 19 39 57 74 88 96 94 89 84 83 81 77 73 73 74 74 73 69 66 65 71
7 11 5 4 6 5 17 38 40 24 22 27 27 28 15 11 14 13 21 24 26 26 22 28 43 69 88 89 82 83 84 85 85 84 84 81 79 78 73 75 74 71 66 63
12 9 2 5 2 9 7 9 9 29 31 32 32 37 32 29 16 28 31 18 19 31 36 46 55 85 59 62 70 78 87 86 86 87 87 83 79 77 70 71 75 73 69 66
2 9 7 7 8 14 17 9 15 19 20 27 41 35 31 15 8 15 12 14 25 30 40 59 78 67 73 78 79 81 88 89 90 92 86 79 76 80 79 76 73 72 72 71
4 3 7 7 8 14 8 4 16 10 19 29 37 27 27 5 12 13 26 33 40 56 65 67 70 72 78 82 79 79 84 87 94 96 88 82 78 76 76 75 76 74 72 73
15 9 23 10 10 17 25 17 19 8 9 15 27 20 19 14 26 42 40 52 64 67 67 72 75 75 80 82 80 79 78 81 82 89 90 85 79 76 76 77 74 73 72 72
21 21 13 12 14 22 37 27 19 11 16 27 24 18 28 41 47 54 56 62 65 66 75 76 80 79 80 75 74 79 81 80 81 81 85 87 84 77 73 75 75 73 72 72
13 15 16 25 18 5 74 27 73 23 20 29 31 31 42 49 58 60 65 64 66 73 75 75 78 81 77 74 70 80 82 78 81 83 83 82 81 77 71 71 75 72 68 71
13 14 7 6 24 37 49 73 39 53 53 44 42 45 54 61 66 67 64 68 73 75 76 79 83 83 81 74 72 77 82 79 79 82 83 80 79 79 75 71 71 74 74 70
8 31 14 11 27 6 42 72 72 65 60 59 58 62 66 64 67 68 75 76 72 79 77 77 83 84 84 78 77 78 81 82 86 87 87 85 81 78 76 75 72 71 71 73
24 16 19 18 36 27 32 51 42 48 42 41 47 52 57 59 69 71 76 77 81 84 81 83 85 86 84 79 81 82 79 83 85 92 92 89 87 83 83 80 77 74 71 67
Wind_Direction_500mb
35 90 135 166 180 106 123 127 128 82 49 314 286 279 264 241 232 250 255 252 244 246 255 247 245 242 248 248 247 251 255 255 257 257 262 269 274 281 281 290 293 299 308 313
63 90 186 102 127 123 115 130 103 98 36 341 333 290 318 311 263 280 278 265 270 271 269 269 260 251 251 253 254 253 255 258 259 262 266 268 272 276 277 281 284 287 297 300
81 100 163 121 123 116 84 144 151 115 96 58 328 294 29 29 12 18 350 308 318 298 288 281 272 261 257 256 258 258 259 260 263 264 264 265 266 268 273 276 281 291 292 295
83 311 101 97 80 100 101 69 109 99 178 153 358 125 47 5 84 54 38 44 30 10 359 337 298 275 261 258 259 259 257 258 261 262 263 266 266 269 276 277 276 282 286 291
53 58 56 62 41 336 113 113 93 90 93 166 18 185 96 273 36 28 17 11 21 16 8 2 2 344 306 269 261 262 260 260 261 263 266 266 267 269 270 277 272 278 281 287
65 30 32 67 45 86 138 109 84 93 137 101 345 340 64 44 3 24 49 42 40 35 30 32 39 43 39 21 343 293 268 263 260 264 266 269 271 271 274 276 272 274 275 279
21 14 357 55 86 43 104 156 155 130 96 119 344 305 64 32 45 82 76 51 44 41 43 49 54 54 44 34 17 3 330 289 269 265 268 274 276 275 275 274 272 269 270 271
149 177 15 358 21 157 72 324 31 140 144 123 21 220 112 90 100 107 80 43 40 45 43 40 32 20 14 17 14 7 1 342 303 280 276 275 276 275 275 276 274 270 269 272
159 78 327 36 15 342 111 67 18 98 29 249 317 184 74 137 115 112 51 37 43 46 27 9 359 355 354 355 349 352 343 337 326 305 286 276 272 272 275 275 273 271 268 266
134 115 33 343 258 57 27 126 103 30 146 184 230 291 140 169 155 79 30 38 38 10 358 356 351 349 352 352 351 343 333 323 315 306 295 288 281 275 271 270 272 274 272 267
130 72 23 188 28 121 97 126 52 85 353 116 173 238 181 174 157 37 26 29 359 349 353 355 355 352 344 339 334 328 319 312 305 303 296 285 276 273 273 274 276 274 273 269
162 103 105 88 148 303 248 180 190 217 155 106 157 246 183 142 164 209 17 353 343 350 347 346 348 345 342 340 337 332 324 313 305 301 298 292 287 283 273 267 270 272 273 272
174 118 118 104 164 221 212 76 99 107 163 208 212 226 97 169 223 318 343 335 335 336 340 340 335 336 346 348 345 340 336 332 326 320 315 312 308 296 288 286 282 277 274 272
107 136 201 180 123 125 149 169 174 177 197 241 239 267 222 262 300 315 317 319 322 323 326 323 330 340 341 339 339 334 328 323 320 318 317 318 319 314 308 296 282 275 274 272
79 141 152 79 114 96 172 195 199 215 226 228 265 270 269 271 283 292 299 305 317 316 320 336 342 341 337 335 334 330 326 323 320 316 312 311 310 311 311 310 307 293 279 271
20 136 93 39 78 123 249 239 236 237 243 253 256 268 281 272 268 248 278 292 302 305 307 319 332 333 332 328 324 322 321 317 314 312 310 308 306 304 303 304 305 305 291 280
121 132 135 224 39 346 278 231 220 219 219 222 230 242 281 255 265 250 287 292 300 304 263 290 315 325 317 316 315 315 316 314 312 311 309 309 306 303 300 297 298 299 301 294
135 118 111 115 94 219 254 303 272 238 254 234 254 263 276 288 289 294 288 269 302 299 272 289 303 318 317 314 309 307 309 309 307 306 306 306 305 298 302 300 297 297 298 294
33 134 120 191 211 315 299 235 181 190 264 221 232 253 269 294 307 271 204 296 299 303 294 298 308 316 316 315 314 312 309 309 309 308 310 309 304 298 300 299 303 302 298 295
232 255 186 177 205 216 227 146 152 136 277 238 225 245 258 285 265 288 290 296 304 309 308 311 317 318 319 323 320 314 312 311 310 312 309 305 300 296 292 293 294 298 299 298
164 184 205 182 229 273 241 181 156 141 250 155 173 201 226 211 254 296 294 295 303 310 311 314 317 319 321 321 319 318 318 313 313 311 309 303 299 296 291 288 288 292 294 295
168 161 185 180 213 261 165 146 196 195 167 168 185 229 254 263 287 296 299 300 305 306 308 310 314 316 320 321 318 316 316 322 317 314 310 309 307 301 296 288 285 284 287 289
196 187 178 192 205 199 177 199 206 196 189 201 227 252 265 275 285 292 295 298 300 303 305 307 310 312 315 318 314 312 317 321 321 317 314 312 309 305 300 292 287 286 283 284
224 190 210 138 238 224 217 223 226 222 235 240 253 268 271 276 283 287 289 294 299 302 303 304 307 308 311 316 315 309 311 314 317 318 317 313 308 307 304 300 292 286 286 285
171 147 179 263 271 266 241 237 237 242 246 250 265 267 270 277 281 288 292 295 297 301 301 302 303 306 307 312 313 311 309 310 310 314 317 313 308 304 304 301 297 291 288 286
193 176 190 216 216 203 232 243 247 236 246 252 259 270 276 281 287 292 290 294 298 302 303 300 301 304 304 308 311 313 311 309 309 310 313 312 307 301 296 297 298 297 293 290
Wind_Speed_850mb
9 8 13 16 6 9 18 14 12 5 7 5 3 14 23 18 24 31 29 28 32 39 34 38 52 55 53 55 55 55 56 52 56 57 53 52 51 48 44 39 37 36 32 28
12 9 3 11 17 24 13 20 8 6 7 6 10 25 20 11 16 20 29 31 31 32 33 38 41 51 58 61 62 60 63 62 60 57 55 55 51 53 47 42 39 36 34 33
11 2 3 17 20 28 12 11 9 7 7 5 19 4 10 7 7 12 11 8 14 21 26 31 40 46 51 57 62 62 60 61 59 56 55 55 55 57 52 48 43 39 37 39
15 8 8 20 16 7 10 7 14 11 8 2 12 3 8 11 19 31 33 32 26 25 22 19 21 31 43 47 55 57 58 60 59 55 55 56 56 54 52 47 42 41 42 45
6 6 12 16 7 3 9 8 11 9 9 6 9 2 7 3 14 25 34 33 31 34 33 25 17 14 14 25 41 45 50 56 57 53 53 54 54 52 51 49 49 49 46 48
8 6 7 6 7 9 21 12 8 6 4 4 7 7 7 7 12 22 31 37 50 55 48 35 27 28 29 26 19 24 37 43 47 50 51 52 52 50 53 48 51 51 51 52
11 6 7 5 10 4 2 4 2 3 3 4 4 5 9 12 14 14 31 32 49 61 67 53 48 46 49 53 44 34 25 26 36 44 48 50 50 52 54 51 51 53 56 57
7 5 6 8 5 3 5 3 2 4 4 4 3 4 11 13 14 15 22 31 42 58 62 57 52 49 48 41 46 44 36 27 26 34 42 47 50 53 56 55 56 56 59 58
10 3 6 9 5 8 2 5 4 9 5 1 3 3 11 15 8 16 19 30 39 47 54 58 59 56 50 40 34 32 31 30 26 29 36 45 49 53 57 58 60 61 62 60
4 9 4 4 2 15 5 8 4 3 5 3 0 9 14 17 19 6 27 29 26 39 48 54 54 51 42 35 32 34 33 34 37 34 33 37 45 52 57 61 65 65 65 63
4 3 3 2 8 2 3 1 6 3 3 2 0 3 9 24 16 8 11 11 22 38 45 46 41 31 35 39 44 43 38 36 40 44 43 45 46 49 55 62 64 65 63 65
1 6 5 4 2 4 2 5 4 5 7 4 3 13 11 11 17 4 12 21 42 40 42 45 44 48 48 45 40 38 38 40 44 48 50 49 51 58 63 68 69 68 67 66
12 1 8 4 2 1 4 4 7 8 4 13 6 7 7 17 16 11 28 46 48 44 42 42 46 47 42 44 44 42 40 42 44 45 48 49 51 55 62 67 71 72 72 72
6 4 6 10 8 8 11 10 6 5 6 7 23 30 20 24 25 27 42 39 34 35 36 40 31 34 44 54 62 60 54 52 55 58 60 57 53 54 58 63 69 72 75 77
2 5 1 5 8 5 9 14 15 19 21 17 28 33 42 27 31 45 33 29 35 35 36 24 30 43 56 69 74 74 74 70 67 65 65 67 69 69 66 63 62 68 76 80
2 7 4 4 7 2 8 24 27 32 35 35 41 52 44 42 26 15 19 27 29 31 18 19 39 57 74 88 96 94 89 84 83 81 77 73 73 74 74 73 69 66 65 71
7 11 5 4 6 5 17 38 40 24 22 27 27 28 15 11 14 13 21 24 26 26 22 28 43 69 88 89 82 83 84 85 85 84 84 81 79 78 73 75 74 71 66 63
12 9 2 5 2 9 7 9 9 29 31 32 32 37 32 29 16 28 31 18 19 31 36 46 55 85 59 62 70 78 87 86 86 87 87 83 79 77 70 71 75 73 69 66
2 9 7 7 8 14 17 9 15 19 20 27 41 35 31 15 8 15 12 14 25 30 40 59 78 67 73 78 79 81 88 89 90 92 86 79 76 80 79 76 73 72 72 71
4 3 7 7 8 14 8 4 16 10 19 29 37 27 27 5 12 13 26 33 40 56 65 67 70 72 78 82 79 79 84 87 94 96 88 82 78 76 76 75 76 74 72 73
15 9 23 10 10 17 25 17 19 8 9 15 27 20 19 14 26 42 40 52 64 67 67 72 75 75 80 82 80 79 78 81 82 89 90 85 79 76 76 77 74 73 72 72
21 21 13 12 14 22 37 27 19 11 16 27 24 18 28 41 47 54 56 62 65 66 75 76 80 79 80 75 74 79 81 80 81 81 85 87 84 77 73 75 75 73 72 72
13 15 16 25 18 5 74 27 73 23 20 29 31 31 42 49 58 60 65 64 66 73 75 75 78 81 77 74 70 80 82 78 81 83 83 82 81 77 71 71 75 72 68 71
13 14 7 6 24 37 49 73 39 53 53 44 42 45 54 61 66 67 64 68 73 75 76 79 83 83 81 74 72 77 82 79 79 82 83 80 79 79 75 71 71 74 74 70
8 31 14 11 27 6 42 72 72 65 60 59 58 62 66 64 67 68 75 76 72 79 77 77 83 84 84 78 77 78 81 82 86 87 87 85 81 78 76 75 72 71 71 73
24 16 19 18 36 27 32 51 42 48 42 41 47 52 57 59 69 71 76 77 81 84 81 83 85 86 84 79 81 82 79 83 85 92 92 89 87 83 83 80 77 74 71 67
Wind_Direction_850mb
35 90 135 166 180 106 123 127 128 82 49 314 286 279 264 241 232 250 255 252 244 246 255 247 245 242 248 248 247 251 255 255 257 257 262 269 274 281 281 290 293 299 308 313
63 90 186 102 127 123 115 130 103 98 36 341 333 290 318 311 263 280 278 265 270 271 269 269 260 251 251 253 254 253 255 258 259 262 266 268 272 276 277 281 284 287 297 300
81 100 163 121 123 116 84 144 151 115 96 58 328 294 29 29 12 18 350 308 318 298 288 281 272 261 257 256 258 258 259 260 263 264 264 265 266 268 273 276 281 291 292 295
83 311 101 97 80 100 101 69 109 99 178 153 358 125 47 5 84 54 38 44 30 10 359 337 298 275 261 258 259 259 257 258 261 262 263 266 266 269 276 277 276 282 286 291
53 58 56 62 41 336 113 113 93 90 93 166 18 185 96 273 36 28 17 11 21 16 8 2 2 344 306 269 261 262 260 260 261 263 266 266 267 269 270 277 272 278 281 287
65 30 32 67 45 86 138 109 84 93 137 101 345 340 64 44 3 24 49 42 40 35 30 32 39 43 39 21 343 293 268 263 260 264 266 269 271 271 274 276 272 274 275 279
21 14 357 55 86 43 104 156 155 130 96 119 344 305 64 32 45 82 76 51 44 41 43 49 54 54 44 34 17 3 330 289 269 265 268 274 276 275 275 274 272 269 270 271
149 177 15 358 21 157 72 324 31 140 144 123 21 220 112 90 100 107 80 43 40 45 43 40 32 20 14 17 14 7 1 342 303 280 276 275 276 275 275 276 274 270 269 272
159 78 327 36 15 342 111 67 18 98 29 249 317 184 74 137 115 112 51 37 43 46 27 9 359 355 354 355 349 352 343 337 326 305 286 276 272 272 275 275 273 271 268 266
134 115 33 343 258 57 27 126 103 30 146 184 230 291 140 169 155 79 30 38 38 10 358 356 351 349 352 352 351 343 333 323 315 306 295 288 281 275 271 270 272 274 272 267
130 72 23 188 28 121 97 126 52 85 353 116 173 238 181 174 157 37 26 29 359 349 353 355 355 352 344 339 334 328 319 312 305 303 296 285 276 273 273 274 276 274 273 269
162 103 105 88 148 303 248 180 190 217 155 106 157 246 183 142 164 209 17 353 343 350 347 346 348 345 342 340 337 332 324 313 305 301 298 292 287 283 273 267 270 272 273 272
174 118 118 104 164 221 212 76 99 107 163 208 212 226 97 169 223 318 343 335 335 336 340 340 335 336 346 348 345 340 336 332 326 320 315 312 308 296 288 286 282 277 274 272
107 136 201 180 123 125 149 169 174 177 197 241 239 267 222 262 300 315 317 319 322 323 326 323 330 340 341 339 339 334 328 323 320 318 317 318 319 314 308 296 282 275 274 272
79 141 152 79 114 96 172 195 199 215 226 228 265 270 269 271 283 292 299 305 317 316 320 336 342 341 337 335 334 330 326 323 320 316 312 311 310 311 311 310 307 293 279 271
20 136 93 39 78 123 249 239 236 237 243 253 256 268 281 272 268 248 278 292 302 305 307 319 332 333 332 328 324 322 321 317 314 312 310 308 306 304 303 304 305 305 291 280
121 132 135 224 39 346 278 231 220 219 219 222 230 242 281 255 265 250 287 292 300 304 263 290 315 325 317 316 315 315 316 314 312 311 309 309 306 303 300 297 298 299 301 294
135 118 111 115 94 219 254 303 272 238 254 234 254 263 276 288 289 294 288 269 302 299 272 289 303 318 317 314 309 307 309 309 307 306 306 306 305 298 302 300 297 297 298 294
33 134 120 191 211 315 299 235 181 190 264 221 232 253 269 294 307 271 204 296 299 303 294 298 308 316 316 315 314 312 309 309 309 308 310 309 304 298 300 299 303 302 298 295
232 255 186 177 205 216 227 146 152 136 277 238 225 245 258 285 265 288 290 296 304 309 308 311 317 318 319 323 320 314 312 311 310 312 309 305 300 296 292 293 294 298 299 298
164 184 205 182 229 273 241 181 156 141 250 155 173 201 226 211 254 296 294 295 303 310 311 314 317 319 321 321 319 318 318 313 313 311 309 303 299 296 291 288 288 292 294 295
168 161 185 180 213 261 165 146 196 195 167 168 185 229 254 263 287 296 299 300 305 306 308 310 314 316 320 321 318 316 316 322 317 314 310 309 307 301 296 288 285 284 287 289
196 187 178 192 205 199 177 199 206 196 189 201 227 252 265 275 285 292 295 298 300 303 305 307 310 312 315 318 314 312 317 321 321 317 314 312 309 305 300 292 287 286 283 284
224 190 210 138 238 224 217 223 226 222 235 240 253 268 271 276 283 287 289 294 299 302 303 304 307 308 311 316 315 309 311 314 317 318 317 313 308 307 304 300 292 286 286 285
171 147 179 263 271 266 241 237 237 242 246 250 265 267 270 277 281 288 292 295 297 301 301 302 303 306 307 312 313 311 309 310 310 314 317 313 308 304 304 301 297 291 288 286
193 176 190 216 216 203 232 243 247 236 246 252 259 270 276 281 287 292 290 294 298 302 303 300 301 304 304 308 311 313 311 309 309 310 313 312 307 301 296 297 298 297 293 290